Flag for Kiribati

Past Weather in Kiritimati, Christmas Island, Kiribati — Yesterday and Last 2 Weeks

Now
86 °F

Scattered clouds.


Feels Like: 93 °F
Forecast: 82 / 78 °F
Wind: 16 mph from East

Location: Christmas / Cassidy
Current Time: Oct 21, 2020 at 2:05:37 pm
Latest Report: Oct 21, 2020 at 1:00 pm
Visibility: N/A
Pressure29.77 "Hg
Humidity: 66%
Dew Point: 73 °F
Location of KiritimatiLocation

Past Weather in Kiritimati — Graph

°F

Kiritimati Temperature Yesterday

Maximum temperature yesterday: 84 °F (at 11:00 am)
Minimum temperature yesterday: 77 °F (at 1:00 am)
Average temperature yesterday: 80 °F

High & Low Weather Summary for the Past Weeks

 TemperatureHumidityPressure
High86 °F (Oct 6, 1:00 pm)89% (Oct 8, 8:00 pm)29.89 "Hg (Oct 8, 8:00 pm)
Low77 °F (Oct 7, 2:00 am)62% (Oct 6, 1:00 pm)29.68 "Hg (Oct 15, 3:00 pm)
Average80 °F76%29.80 "Hg
* Reported Oct 6 1:00 pm — Oct 21 1:00 pm, Kiritimati. Weather by CustomWeather, © 2020

Note: Actual official high and low records may vary slightly from our data, if they occured in-between our weather recording intervals... More about our weather records

Kiritimati Weather History for the Previous 24 Hours

Scroll right to see more
 ConditionsComfort  
Time TempWeatherWind HumidityBarometerVisibility
1:00 pm
Wed, Oct 21
86 °FScattered clouds.16 mph66%29.77 "HgN/A
12:00 pm86 °FScattered clouds.16 mph66%29.80 "HgN/A
11:00 am86 °FPassing clouds.13 mph66%29.83 "HgN/A
10:00 am84 °FScattered clouds.15 mph70%29.83 "HgN/A
9:00 am82 °FPassing clouds.12 mph70%29.83 "HgN/A
8:00 am79 °FScattered clouds.9 mph84%29.83 "HgN/A
7:00 am79 °FScattered clouds.7 mph84%29.80 "HgN/A
6:00 am77 °FScattered clouds.7 mph83%29.77 "HgN/A
5:00 am77 °FPassing clouds.7 mph83%29.77 "HgN/A
4:00 am77 °FPassing clouds.8 mph89%29.77 "HgN/A
3:00 am79 °FPassing clouds.8 mph79%29.77 "HgN/A
2:00 am79 °FPassing clouds.7 mph79%29.80 "HgN/A
1:00 am79 °FPassing clouds.7 mph79%29.80 "HgN/A
12:00 am79 °FPassing clouds.8 mph79%29.83 "HgN/A
11:00 pm
Tue, Oct 20
79 °FPassing clouds.6 mph79%29.83 "HgN/A
10:00 pm79 °FPassing clouds.9 mph79%29.83 "HgN/A
9:00 pm79 °FPassing clouds.9 mph79%29.83 "HgN/A
8:00 pm79 °FPassing clouds.8 mph79%29.80 "HgN/A
7:00 pm79 °FPassing clouds.9 mph79%29.77 "HgN/A
6:00 pm79 °FPassing clouds.9 mph74%29.77 "HgN/A
5:00 pm81 °FPassing clouds.10 mph70%29.74 "HgN/A
4:00 pm82 °FPassing clouds.10 mph70%29.74 "HgN/A
3:00 pm84 °FScattered clouds.10 mph66%29.74 "HgN/A
2:00 pm82 °FPassing clouds.13 mph74%29.77 "HgN/A
Weather by CustomWeather, © 2020

See weather overview